Terug naar catalogus

COSMOS 1798

ActiefMilitairLEO
NORAD 17142·PAYLOAD·🇷🇺 Russia

Gelanceerd Nov 21, 1986 vanaf Plesetsk Cosmodrome

Loading…

Volgende Passages (komende 24 uur)

TLE

VersSource: Space-Track

Epoch: Sep 14, 2026, 22:24 UTC

1 17142U 86092E   26257.93382159 -.00000029  00000-0 -81415-4 0  9998
2 17142  74.0113  71.4372 0027899 104.4704 328.6214 12.53477827821904

Volg COSMOS 1798 in realtime met AllMySat

Download on the App Store